Overview Statistics Trail Chart Weather Telemetry Raw packets
 

This is the latest recevied weather packets stored in our database for station/object NB9X. If no packets are shown the sender has not sent any weather packets the latest 10 day(s).

<< 26 27 28 29 30 31 32 >>
Time Temp. Humidity Pressure Rain* Wind** Luminosity Snow
1788471261 31.67° C 100% 1011.1 hPa 0 mm - - -
1788470961 31.11° C 100% 1010.9 hPa 0 mm - - -
1788470661 32.22° C 100% 1010.9 hPa 0 mm - - -
1788470361 32.22° C 100% 1010.9 hPa 0 mm - - -
1788470061 32.22° C 100% 1010.9 hPa 0 mm - - -
1788469761 33.33° C 100% 1011 hPa 0 mm - - -
1788469461 31.67° C 100% 1011 hPa 0 mm - - -
1788469161 31.67° C 100% 1011 hPa 0 mm - - -
1788468862 32.22° C 100% 1011.2 hPa 0 mm - - -
1788468561 32.78° C 100% 1011.3 hPa 0 mm - - -
1788468261 32.78° C 100% 1011.3 hPa 0 mm - - -
1788467962 32.78° C 100% 1011.3 hPa 0 mm - - -
1788467662 32.78° C 100% 1011.2 hPa 0 mm - - -
1788467362 31.67° C 100% 1011.2 hPa 0 mm - - -
1788467074 31.11° C 100% 1011.2 hPa 0 mm - - -
1788466762 30.56° C 100% 1011.2 hPa 0 mm - - -
1788466462 30° C 100% 1011.3 hPa 0 mm - - -
1788466162 29.44° C 100% 1011.5 hPa 0 mm - - -
1788465862 29.44° C 100% 1011.6 hPa 0 mm - - -
1788465562 29.44° C 100% 1011.7 hPa 0 mm - - -
1788465262 29.44° C 100% 1011.8 hPa 0 mm - - -
1788464962 29.44° C 100% 1011.8 hPa 0 mm - - -
1788464662 29.44° C 100% 1011.9 hPa 0 mm - - -
1788464362 30° C 100% 1012.1 hPa 0 mm - - -
1788464062 30° C 100% 1012.2 hPa 0 mm - - -

* Rain latest hour (hover to see other rain measurements)
** Current wind speed in m/s (hover to see current wind gust speed)